Home   Weather   Greifswald   Past weeks

Flag for Germany Past Weather in Greifswald, Mecklenburg-Western Pomerania, Germany — Yesterday and Last 2 Weeks

Now
64 °F

Clear.


Feels Like: 64 °F
Forecast: 59 / 74 °F
Wind: 3 mph from Southeast

Location: Trollenhagen

Current Time: Sep 1, 2016 at 1:38:04 AM

Latest Report: Sep 1, 2016 at 1:00 AM


Visibility: N/A

Pressure: 30.10 "Hg

Humidity: 64%

Dew Point: 51 °F

Location of GreifswaldLocation

Past Weather in Greifswald — Graph

°F

Greifswald Temperature Yesterday

Maximum temperature yesterday: 76 °F (at 6:00 PM)
Minimum temperature yesterday: 53 °F (at 6:00 AM)
Average temperature yesterday: 65 °F

High & Low Weather Summary for the Past Weeks

 TemperatureHumidityPressure
High88 °F (Aug 26, 6:00 PM)100% (Aug 17, 6:00 AM)30.34 "Hg (Aug 17, 6:00 AM)
Low47 °F (Aug 17, 7:00 AM)32% (Aug 26, 4:00 PM)29.80 "Hg (Aug 18, 6:00 PM)
Average66 °F72%30.06 "Hg
* Reported Aug 17 12:00 AM — Sep 1 12:00 AM, Greifswald, Weather by CustomWeather, © 2016

Note: Actual official high and low records may vary slightly from our data, if they occured in-between our weather recording intervals... More about our weather records

Advertising

Greifswald Weather History for the Previous 24 Hours

Scroll right to see more
 ConditionsComfort  
Time TempWeatherWind HumidityBarometerVisibility
12:00 AM
Thu, Sep 1
65 °FClear.3 mph61%30.11 "HgN/A
10:00 PM
Wed, Aug 31
67 °FClear.2 mph57%30.12 "HgN/A
9:00 PM70 °FClear.2 mph52%30.12 "HgN/A
7:00 PM76 °FSunny.2 mph42%30.11 "HgN/A
6:00 PM76 °FSunny.3 mph41%30.12 "HgN/A
4:00 PM76 °FSunny.5 mph41%30.16 "HgN/A
3:00 PM75 °FSunny.3 mph44%30.18 "HgN/A
1:00 PM72 °FSunny.2 mph50%30.22 "HgN/A
12:00 PM71 °FSunny.2 mph55%30.23 "HgN/A
10:00 AM66 °FSunny.3 mph64%30.25 "HgN/A
9:00 AM61 °FSunny.2 mph78%30.26 "HgN/A
7:00 AM56 °FSunny.2 mph92%30.26 "HgN/A
6:00 AM53 °FClear.1 mph94%30.26 "HgN/A
4:00 AM56 °FClear.2 mph95%30.27 "HgN/A
3:00 AM56 °FClear.1 mph94%30.27 "HgN/A
1:00 AM57 °FClear.1 mph92%30.27 "HgN/A
Weather by CustomWeather, © 2016

See weather overviewHow to use our weather pages